Погода в Донском

Россия / Калининградская область     54°56′18″N   19°58′11″E
темп.,
°C
ветер,
м/с
пор.,
м/с
влажн.,
%
обл.,
%
осадки,
мм/ч
давл.,
гПа
погр.,
м
1 августа, вс
вс123:00+21юз68657 0.8 1004759
02:00+21юз1113673 1.1 10041431
05:00+19зюз12137520 0.0 10041095
08:00+19зюз101176100 0.0 1005915
11:00+19зюз8975100 0.1 1006943
14:00+20юз5668100 0.2 1006753
17:00+20зсз3366100 0.1 1006394
20:00+20з556974 0.6 1005439
2 августа, пн
пн223:00+19зюз4474100 0.9 1005303
02:00+20з5670100 1.6 1005867
05:00+19зсз6770100 0.0 1004957
08:00+19з6673100 0.3 1005881
11:00+18з997999 3.5 1005826
14:00+19з10126385 4.3 10061376
17:00+20з1213620 0.1 10071665
20:00+19з1313682 0.2 10071415
3 августа, вт
вт323:00+19з13137182 1.1 10071273
02:00+19з887287 4.0 10081169
05:00+19зсз910655 2.1 10091183
08:00+18сз78645 2.1 10111185
11:00+19сз55585 0.0 10121066
14:00+19з225113 0.0 1013763
17:00+19зсз2250100 0.0 1013480
20:00+17з4476100 0.8 1013318
4 августа, ср
ср423:00+18з3370100 1.2 1013316
02:00+19з44645 1.3 1014844
05:00+19з336290 0.0 1013805
08:00+19зюз2261100 0.0 1014849
11:00+17зюз2178100 0.6 1015283
14:00+16ссв2278100 1.4 1015188
17:00+18св447371 0.0 1014440
20:00+19св5573100 0.1 1014631
5 августа, чт
чт523:00+19всв5572100 0.0 1014775
02:00+19в667497 0.0 1014793
05:00+18в6678100 0.0 1013665
08:00+18в6683100 0.0 1013559
11:00+18в6678100 0.0 1012591
14:00+20всв6675100 0.1 1010366
17:00+19ююв6675100 1.9 1010548
20:00+18ююв2284100 3.3 1009268